Change the Weather History Date:

Thursday, February 27, 2014

  Actual Average Record
Temperature  
Mean Temperature 8 °F -  
Max Temperature 15 °F 45 °F 68 °F (1976)
Min Temperature 0 °F 25 °F -8 °F (1962)
Degree Days  
Heating Degree Days 58    
Moisture  
Dew Point -5 °F    
Average Humidity 55    
Maximum Humidity 69    
Minimum Humidity 40    
Precipitation  
Precipitation 0.00 in - - ()
Sea Level Pressure  
Sea Level Pressure 30.14 in    
Wind  
Wind Speed 11 mph (ENE)    
Max Wind Speed 17 mph    
Max Gust Speed -    
Visibility 10 miles    
Events      
Averages and records for this station are not official NWS values.
T = Trace of Precipitation, MM = Missing Value Source: NWS Daily Summary

Daily Weather History Graph

Daily Weather History Graph

Search for Another Location

Airport or City:

Trip Planner

Search our weather history database for the weather conditions in past years. The results will help you decide how hot, cold, wet, or windy it might be!

Date:

Astronomy

Feb. 27, 2014 Rise Set
Actual Time 7:02 AM CST 6:12 PM CST
Civil Twilight 6:34 AM CST 6:40 PM CST
Nautical Twilight 6:02 AM CST 7:13 PM CST
Astronomical Twilight 5:30 AM CST 7:45 PM CST
Moon 5:37 AM CST (2/27) 4:39 PM CST (2/27)
Length of Visible Light 12h 06m
Length of Day
11h 10m
Waning Crescent, 4% of the Moon is Illuminated
Feb 27
Waning Crescent
Mar 1
New
Mar 8
First Quarter
Mar 16
Full
Mar 23
Last Quarter

Hourly Weather History & Observations

Time (CST) Temp. Windchill Dew Point Humidity Pressure Visibility Wind Dir Wind Speed Gust Speed Precip Events Conditions
12:54 AM 15.1 °F 1.1 °F 3.0 °F 59% 30.09 in 10.0 mi North 12.7 mph - N/A   Clear
1:54 AM 12.0 °F -5.1 °F 1.9 °F 64% 30.12 in 10.0 mi North 17.3 mph - N/A   Clear
2:54 AM 9.0 °F -5.9 °F -0.0 °F 67% 30.14 in 10.0 mi North 11.5 mph - N/A   Clear
3:54 AM 7.0 °F -9.8 °F -2.0 °F 67% 30.18 in 10.0 mi North 13.8 mph - N/A   Clear
4:54 AM 3.0 °F -13.3 °F -5.1 °F 69% 30.20 in 10.0 mi North 11.5 mph - N/A   Clear
5:54 AM 1.0 °F -14.9 °F -9.9 °F 60% 30.22 in 10.0 mi North 10.4 mph - N/A   Clear
6:54 AM -0.9 °F -15.3 °F -11.0 °F 62% 30.24 in 10.0 mi NNE 8.1 mph - N/A   Clear
7:54 AM 1.9 °F -15.5 °F -11.0 °F 55% 30.23 in 10.0 mi North 12.7 mph - N/A   Clear
8:54 AM 3.0 °F -13.3 °F -11.9 °F 50% 30.25 in 10.0 mi NNE 11.5 mph - N/A   Clear
9:54 AM 5.0 °F -6.9 °F -9.9 °F 50% 30.27 in 10.0 mi NE 6.9 mph - N/A   Clear
10:54 AM 8.1 °F -2.0 °F -11.0 °F 42% 30.25 in 10.0 mi NNE 5.8 mph - N/A   Clear
11:54 AM 8.1 °F -0.5 °F -8.0 °F 48% 30.24 in 10.0 mi South 4.6 mph - N/A   Clear
12:54 PM 10.9 °F 4.7 °F -9.0 °F 40% 30.19 in 10.0 mi Variable 3.5 mph - N/A   Clear
1:54 PM 12.9 °F 2.6 °F -7.1 °F 41% 30.16 in 10.0 mi East 6.9 mph - N/A   Scattered Clouds
2:54 PM 14.0 °F 1.2 °F -4.0 °F 45% 30.13 in 10.0 mi ESE 10.4 mph - N/A   Overcast
3:54 PM 15.1 °F 1.1 °F -4.0 °F 43% 30.10 in 10.0 mi ESE 12.7 mph - N/A   Overcast
4:54 PM 12.9 °F -0.9 °F -4.0 °F 47% 30.09 in 10.0 mi East 11.5 mph - N/A   Mostly Cloudy
5:54 PM 10.9 °F -2.6 °F -2.9 °F 54% 30.07 in 10.0 mi East 10.4 mph - N/A   Clear
6:54 PM 9.0 °F -3.2 °F -2.9 °F 59% 30.09 in 10.0 mi East 8.1 mph - N/A   Clear
7:54 PM 8.1 °F -5.3 °F -2.9 °F 61% 30.08 in 10.0 mi ESE 9.2 mph - N/A   Clear
8:54 PM 9.0 °F -3.2 °F -2.0 °F 61% 30.06 in 10.0 mi East 8.1 mph - N/A   Clear
9:54 PM 8.1 °F -6.2 °F -2.9 °F 61% 30.02 in 10.0 mi ESE 10.4 mph - N/A   Clear
10:54 PM 8.1 °F -4.3 °F -2.9 °F 61% 29.99 in 10.0 mi SE 8.1 mph - N/A   Partly Cloudy
11:54 PM 9.0 °F -8.5 °F -2.0 °F 61% 29.96 in 10.0 mi SE 16.1 mph - N/A   Mostly Cloudy